Overview Statistics Trail Chart Weather Telemetry Raw packets
 

This is the latest recevied weather packets stored in our database for station/object JA0BES-13. If no packets are shown the sender has not sent any weather packets the latest 10 day(s).

<< 13 14 15 16 17 18 19 >>
Time Temp. Humidity Pressure Rain* Wind** Luminosity Snow
1788329851 32.78° C 84% 1011.2 hPa 0 mm - - -
1788329250 32.78° C 84% 1011.3 hPa 0 mm - - -
1788328650 33.33° C 82% 1011.4 hPa 0 mm - - -
1788328049 33.33° C 81% 1011.4 hPa 0 mm - - -
1788327449 33.89° C 80% 1011.3 hPa 0 mm - - -
1788326848 33.89° C 79% 1011.4 hPa 0 mm - - -
1788326248 34.44° C 79% 1011.7 hPa 0 mm - - -
1788325648 34.44° C 79% 1011.7 hPa 0 mm - - -
1788325048 34.44° C 79% 1011.7 hPa 0 mm - - -
1788324447 33.89° C 80% 1011.7 hPa 0 mm - - -
1788323848 33.89° C 79% 1011.9 hPa 0 mm - - -
1788323247 33.89° C 78% 1011.9 hPa 0 mm - - -
1788322646 33.89° C 74% 1012.1 hPa 0 mm - - -
1788322046 33.89° C 72% 1012 hPa 0 mm - - -
1788321446 34.44° C 73% 1012.3 hPa 0 mm - - -
1788320845 34.44° C 72% 1012.5 hPa 0 mm - - -
1788320245 34.44° C 71% 1012.5 hPa 0 mm - - -
1788319644 33.89° C 72% 1012.7 hPa 0 mm - - -
1788319048 33.33° C 75% 1012.7 hPa 0 mm - - -
1788318444 32.78° C 74% 1012.8 hPa 0 mm - - -
1788317844 32.78° C 74% 1012.9 hPa 0 mm - - -
1788317243 32.22° C 77% 1013 hPa 0 mm - - -
1788316643 31.67° C 79% 1012.8 hPa 0 mm - - -
1788316042 31.67° C 78% 1012.8 hPa 0 mm - - -
1788315442 31.11° C 82% 1013 hPa 0 mm - - -

* Rain since midnight (hover to see other rain measurements)
** Current wind speed in m/s (hover to see current wind gust speed)